| time (UTC) | temp F | wind direction | speed knots | gust knots | rain 1hr in | rain 24hr in | rain mn in | humidity % | barometer mb |
| 20260510020320 | 63 | 318 | 3.5 | 7.8 | 0.00 | 0.12 | 0.00 | 40 | 1031.1 |
| 20260510013319 | 62 | 253 | 5.2 | 9.6 | 0.00 | 0.12 | 0.00 | 40 | 1031.3 |
| 20260510010317 | 62 | 296 | 3.5 | 7.8 | 0.00 | 0.16 | 0.00 | 43 | 1031.6 |
| 20260510003317 | 60 | 304 | 3.5 | 8.7 | 0.00 | 0.16 | 0.00 | 45 | 1031.7 |
| 20260510000315 | 59 | 296 | 5.2 | 9.6 | 0.00 | 0.16 | 0.00 | 44 | 1031.8 |
| 20260509233315 | 58 | 283 | 1.7 | 7.8 | 0.00 | 0.16 | 0.00 | 48 | 1031.6 |
| 20260509230333 | 57 | 273 | 3.5 | 7.8 | 0.00 | 0.16 | 0.00 | 51 | 1031.4 |
| 20260509223353 | 55 | 299 | 1.7 | 6.1 | 0.00 | 0.16 | 0.00 | 57 | 1031.3 |
| 20260509220330 | 52 | 255 | 0.9 | 2.6 | 0.00 | 0.16 | 0.00 | 69 | 1031.3 |
| 20260509213330 | 47 | 92 | 0.0 | 1.7 | 0.00 | 0.16 | 0.00 | 87 | 1031.2 |
| 20260509210328 | 42 | 269 | 0.0 | 0.9 | 0.00 | 0.16 | 0.00 | 96 | 1030.8 |
| 20260509203327 | 39 | 269 | 0.0 | 0.9 | 0.00 | 0.16 | 0.00 | 95 | 1030.4 |
| 20260509200325 | 38 | 269 | 0.0 | 0.0 | 0.00 | 0.16 | 0.00 | 93 | 1029.9 |
| 20260509193325 | 39 | 269 | 0.0 | 0.0 | 0.00 | 0.16 | 0.00 | 92 | 1029.5 |
| 20260509190342 | 40 | 269 | 0.0 | 0.9 | 0.00 | 0.16 | 0.00 | 90 | 1028.9 |
| 20260509183321 | 43 | 208 | 0.0 | 0.0 | 0.00 | 0.16 | 0.00 | 86 | 1028.6 |
| 20260509180319 | 45 | 89 | 0.0 | 1.7 | 0.00 | 0.16 | 0.00 | 84 | 1028.1 |
| 20260509173319 | 44 | 60 | 0.0 | 0.9 | 0.00 | 0.16 | 0.00 | 87 | 1028.1 |
| 20260509170316 | 43 | 111 | 0.0 | 0.0 | 0.00 | 0.16 | 0.00 | 88 | 1028.0 |
| 20260509163316 | 45 | 111 | 0.0 | 0.0 | 0.00 | 0.16 | 0.00 | 84 | 1027.8 |
| 20260509160331 | 45 | 352 | 0.9 | 1.7 | 0.00 | 0.16 | 0.00 | 86 | 1027.6 |
| 20260509153330 | 44 | 96 | 0.0 | 0.9 | 0.00 | 0.16 | 0.00 | 87 | 1027.4 |
| 20260509150328 | 44 | 80 | 0.0 | 1.7 | 0.00 | 0.16 | 0.03 | 85 | 1027.5 |
| 20260509143348 | 46 | 344 | 0.0 | 0.9 | 0.00 | 0.16 | 0.03 | 79 | 1027.4 |
| 20260509140345 | 49 | 278 | 2.6 | 6.1 | 0.00 | 0.16 | 0.03 | 72 | 1026.9 |
| 20260509133344 | 45 | 242 | 0.9 | 2.6 | 0.00 | 0.16 | 0.03 | 82 | 1026.9 |
| 20260509130321 | 44 | 43 | 0.0 | 0.0 | 0.00 | 0.20 | 0.03 | 84 | 1026.8 |
| 20260509123320 | 46 | 43 | 0.0 | 1.7 | 0.00 | 0.20 | 0.03 | 79 | 1026.6 |
| 20260509120339 | 49 | 76 | 0.9 | 2.6 | 0.00 | 0.20 | 0.03 | 73 | 1026.3 |
| 20260509113317 | 51 | 288 | 1.7 | 4.3 | 0.00 | 0.20 | 0.03 | 67 | 1025.8 |
| 20260509110316 | 53 | 216 | 6.1 | 10.4 | 0.00 | 0.75 | 0.03 | 61 | 1025.3 |
| 20260509103337 | 53 | 297 | 2.6 | 9.6 | 0.00 | 0.75 | 0.03 | 62 | 1024.7 |
| 20260509100332 | 54 | 310 | 5.2 | 13.9 | 0.00 | 1.93 | 0.03 | 60 | 1024.0 |
| 20260509093333 | 54 | 336 | 7.0 | 17.4 | 0.00 | 1.93 | 0.03 | 57 | 1023.4 |
| 20260509090351 | 56 | 286 | 7.0 | 19.1 | 0.00 | 2.76 | 0.03 | 54 | 1022.9 |
| 20260509083329 | 57 | 302 | 7.8 | 17.4 | 0.00 | 2.76 | 0.03 | 53 | 1023.0 |
| 20260509080348 | 58 | 284 | 10.4 | 16.5 | 0.00 | 2.76 | 0.03 | 50 | 1023.0 |
| 20260509073326 | 58 | 326 | 9.6 | 17.4 | 0.00 | 2.76 | 0.03 | 51 | 1022.2 |
| 20260509070325 | 58 | 312 | 8.7 | 26.9 | 0.00 | 2.76 | 0.03 | 50 | 1022.0 |
| 20260509063324 | 59 | 297 | 9.6 | 23.5 | 0.00 | 2.76 | 0.03 | 50 | 1021.9 |
| 20260509060323 | 59 | 292 | 8.7 | 20.9 | 0.04 | 2.76 | 0.03 | 51 | 1021.7 |
| 20260509053323 | 58 | 304 | 12.2 | 23.5 | 0.04 | 2.76 | 0.03 | 53 | 1021.6 |
| 20260509050321 | 57 | 323 | 6.1 | 16.5 | 0.00 | 2.80 | 0.02 | 65 | 1021.6 |
| 20260509043341 | 55 | 329 | 6.1 | 19.1 | 0.00 | 2.80 | 0.02 | 73 | 1021.9 |
| 20260509040336 | 58 | 307 | 9.6 | 19.1 | 0.00 | 2.80 | 0.02 | 63 | 1021.6 |
| 20260509033336 | 58 | 290 | 7.8 | 20.0 | 0.00 | 2.80 | 0.02 | 61 | 1020.9 |
| 20260509030332 | 56 | 307 | 12.2 | 24.3 | 0.04 | 2.80 | 0.02 | 65 | 1020.9 |
| 20260509023349 | 55 | 305 | 14.8 | 28.7 | 0.08 | 2.80 | 0.02 | 64 | 1020.9 |